Cut Bank, MT

7:06 PM MST on January 20, 2018 (GMT -0700)
Cut Bank Municipal

Weather History for KCTB - May, 2013

Change the Weather History Date:

Sunday, May 5, 2013

  Actual Average Record
Temperature  
Mean Temperature 47 °F 47 °F  
Max Temperature 66 °F 59 °F 85 °F (1911)
Min Temperature 28 °F 34 °F 15 °F (1967)
Degree Days  
Heating Degree Days 18 18  
Month to date heating degree days 103 95  
Since 1 July heating degree days 7734 7915  
Cooling Degree Days 0 0  
Month to date cooling degree days 0 0  
Year to date cooling degree days 0 0  
Moisture  
Dew Point 30 °F    
Average Humidity 58    
Maximum Humidity 92    
Minimum Humidity 24    
Precipitation  
Precipitation 0.00 in 0.03 in 0.83 in (1976)
Month to date precipitation 0.03 0.18  
Year to date precipitation 2.05 1.87  
Snow  
Snow 0.00 in - - ()
Snow Depth 0.00 in    
Sea Level Pressure  
Sea Level Pressure 30.12 in    
Wind  
Wind Speed 6 mph (SSE)    
Max Wind Speed 17 mph    
Max Gust Speed 26 mph    
Visibility 10 miles    
Events      
T = Trace of Precipitation, MM = Missing Value Source: NWS Daily Summary

Daily Weather History Graph

Daily Weather History Graph

Search for Another Location

Airport or City:

Trip Planner

Search our weather history database for the weather conditions in past years. The results will help you decide how hot, cold, wet, or windy it might be!

Date:

Astronomy

May. 05, 2013 Rise Set
Actual Time 6:02 AM MDT 8:50 PM MDT
Civil Twilight 5:26 AM MDT 9:26 PM MDT
Nautical Twilight 4:40 AM MDT 10:13 PM MDT
Astronomical Twilight 3:45 AM MDT 11:08 PM MDT
Moon 3:55 AM MDT (5/5) 4:35 PM MDT (5/5)
Length of Visible Light 16h 00m
Length of Day
14h 47m
Waning Crescent, 17% of the Moon is Illuminated
May 5
Waning Crescent
May 9
New
May 17
First Quarter
May 24
Full
May 31
Last Quarter

Hourly Weather History & Observations

Time (MDT) Temp. Windchill Dew Point Humidity Pressure Visibility Wind Dir Wind Speed Gust Speed Precip Events Conditions
12:56 AM 43.0 °F - 33.1 °F 68% 30.23 in 10.0 mi Calm Calm - N/A   Clear
1:56 AM 36.0 °F 33.3 °F 30.9 °F 82% 30.24 in 10.0 mi NNW 3.5 mph - N/A   Clear
2:56 AM 36.0 °F - 30.9 °F 82% 30.23 in 10.0 mi Calm Calm - N/A   Clear
3:56 AM 30.9 °F 25.2 °F 28.0 °F 89% 30.23 in 10.0 mi NW 5.8 mph - N/A   Clear
4:56 AM 30.9 °F - 28.0 °F 89% 30.22 in 10.0 mi Calm Calm - N/A   Clear
5:56 AM 28.9 °F - 26.1 °F 89% 30.21 in 10.0 mi Calm Calm - N/A   Clear
6:56 AM 32.0 °F 27.5 °F 28.0 °F 85% 30.22 in 10.0 mi NNW 4.6 mph - N/A   Clear
7:56 AM 37.0 °F - 32.0 °F 82% 30.21 in 10.0 mi Calm Calm - N/A   Clear
8:56 AM 46.0 °F - 36.0 °F 68% 30.20 in 10.0 mi Calm Calm - N/A   Clear
9:56 AM 51.1 °F - 37.0 °F 59% 30.18 in 10.0 mi South 4.6 mph - N/A   Clear
10:56 AM 57.0 °F - 33.1 °F 40% 30.17 in 10.0 mi South 10.4 mph 18.4 mph N/A   Clear
11:56 AM 59.0 °F - 30.9 °F 35% 30.14 in 10.0 mi SE 10.4 mph 18.4 mph N/A   Clear
12:56 PM 61.0 °F - 28.9 °F 30% 30.11 in 10.0 mi SSE 12.7 mph 20.7 mph N/A   Clear
1:56 PM 63.0 °F - 28.9 °F 28% 30.10 in 10.0 mi South 10.4 mph - N/A   Clear
2:56 PM 64.0 °F - 27.0 °F 25% 30.08 in 10.0 mi SE 9.2 mph - N/A   Clear
3:56 PM 64.9 °F - 28.0 °F 25% 30.07 in 10.0 mi South 12.7 mph 19.6 mph N/A   Clear
4:56 PM 64.9 °F - 27.0 °F 24% 30.05 in 10.0 mi SSE 12.7 mph 16.1 mph N/A   Clear
5:56 PM 64.9 °F - 28.0 °F 25% 30.04 in 10.0 mi SE 10.4 mph - N/A   Clear
6:56 PM 64.0 °F - 28.0 °F 26% 30.02 in 10.0 mi SE 8.1 mph - N/A   Clear
7:56 PM 62.1 °F - 30.0 °F 30% 30.01 in 10.0 mi SE 6.9 mph - N/A   Clear
8:56 PM 55.0 °F - 30.0 °F 38% 30.01 in 10.0 mi ESE 5.8 mph - N/A   Clear
9:56 PM 54.0 °F - 30.0 °F 40% 30.01 in 10.0 mi SE 4.6 mph - N/A   Clear
10:56 PM 52.0 °F - 28.9 °F 41% 29.99 in 10.0 mi Calm Calm - N/A   Clear
11:56 PM 48.9 °F - 28.9 °F 46% 30.01 in 10.0 mi Calm Calm - N/A   Clear